Weather History for Whiting Fld NAS, FL

Change the Weather History Date:

Tuesday, April 2, 2013

  Actual Average Record
Temperature  
Mean Temperature 17 °C -  
Max Temperature 27 °C 22 °C 31 °C (2012)
Min Temperature 7 °C 11 °C 5 °C (2001)
Degree Days  
Heating Degree Days 2    
Growing Degree Days 12 (Base 50)    
Moisture  
Dew Point 7 °C    
Average Humidity 59    
Maximum Humidity 93    
Minimum Humidity 23    
Precipitation  
Precipitation 0.00 mm - - ()
Sea Level Pressure  
Sea Level Pressure 1017 hPa    
Wind  
Wind Speed 6 km/h (South)    
Max Wind Speed 24 km/h    
Max Gust Speed 26 km/h    
Visibility 14 kilometers    
Events      
Averages and records for this station are not official NWS values.
T = Trace of Precipitation, MM = Missing Value Source: NWS Daily Summary

Daily Weather History Graph

Daily Weather History Graph

Search for Another Location

Airport:

Trip Planner

Search our weather history database for the weather conditions in past years. The results will help you decide how hot, cold, wet, or windy it might be!

Date:

Astronomy

Apr. 02, 2013 Rise Set
Actual Time 6:35 AM CDT 7:07 PM CDT
Civil Twilight 6:11 AM CDT 7:32 PM CDT
Nautical Twilight 5:42 AM CDT 8:00 PM CDT
Astronomical Twilight 5:13 AM CDT 8:29 PM CDT
Moon 12:56 AM CDT 11:42 AM CDT
Length of Visible Light 13h 20m
Length of Day
12h 32m
Waning Gibbous, 55% of the Moon is Illuminated
Apr 2
Waning Gibbous
Apr 2
Last Quarter
Apr 10
New
Apr 18
First Quarter
Apr 25
Full

Hourly Weather History & Observations

Time (CDT) Temp. Dew Point Humidity Pressure Visibility Wind Dir Wind Speed Gust Speed Precip Events Conditions
12:56 AM 10.6 °C 8.9 °C 89% 1016.2 hPa 12.9 km Calm Calm - N/A   Partly Cloudy
1:56 AM 10.0 °C 8.3 °C 89% 1016.3 hPa 9.7 km Calm Calm - N/A   Clear
2:56 AM 8.3 °C 7.2 °C 93% 1016.2 hPa 8.0 km Calm Calm - 0.0 mm   Clear
3:56 AM 8.3 °C 6.7 °C 90% 1016.3 hPa 11.3 km SSW 5.6 km/h / 1.5 m/s - N/A   Clear
4:56 AM 8.9 °C 7.2 °C 89% 1017.0 hPa 9.7 km WNW 5.6 km/h / 1.5 m/s - N/A   Clear
5:56 AM 7.2 °C 5.6 °C 90% 1017.0 hPa 9.7 km Calm Calm - N/A   Partly Cloudy
6:56 AM 7.2 °C 5.6 °C 90% 1017.5 hPa 9.7 km Calm Calm - N/A   Mostly Cloudy
7:56 AM 12.8 °C 10.6 °C 86% 1018.5 hPa 12.9 km NNE 9.3 km/h / 2.6 m/s - N/A   Mostly Cloudy
8:56 AM 17.2 °C 8.3 °C 56% 1018.8 hPa 16.1 km East 13.0 km/h / 3.6 m/s - N/A   Scattered Clouds
9:56 AM 21.7 °C 7.8 °C 41% 1019.1 hPa 16.1 km East 14.8 km/h / 4.1 m/s - N/A   Mostly Cloudy
10:56 AM 24.4 °C 6.7 °C 32% 1019.0 hPa 16.1 km SE 16.7 km/h / 4.6 m/s - N/A   Mostly Cloudy
11:56 AM 26.1 °C 5.0 °C 26% 1018.5 hPa 16.1 km South 14.8 km/h / 4.1 m/s 25.9 km/h / 7.2 m/s N/A   Mostly Cloudy
12:56 PM 26.1 °C 3.3 °C 23% 1017.8 hPa 16.1 km SSE 9.3 km/h / 2.6 m/s - N/A   Mostly Cloudy
1:56 PM 26.1 °C 4.4 °C 25% 1016.9 hPa 16.1 km SSW 24.1 km/h / 6.7 m/s - N/A   Mostly Cloudy
2:56 PM 26.7 °C 4.4 °C 24% 1016.2 hPa 16.1 km South 18.5 km/h / 5.1 m/s - N/A   Mostly Cloudy
3:56 PM 26.1 °C 4.4 °C 25% 1015.8 hPa 16.1 km SSW 18.5 km/h / 5.1 m/s - N/A   Mostly Cloudy
4:56 PM 24.4 °C 5.6 °C 30% 1015.5 hPa 16.1 km SSW 24.1 km/h / 6.7 m/s - N/A   Mostly Cloudy
5:56 PM 23.3 °C 6.1 °C 33% 1015.7 hPa 16.1 km SSW 18.5 km/h / 5.1 m/s - N/A   Mostly Cloudy
6:56 PM 20.6 °C 6.7 °C 40% 1016.0 hPa 16.1 km SSW 11.1 km/h / 3.1 m/s - N/A   Mostly Cloudy
7:56 PM 18.9 °C 8.3 °C 50% 1016.4 hPa 16.1 km South 13.0 km/h / 3.6 m/s - N/A   Mostly Cloudy
8:56 PM 16.7 °C 10.0 °C 65% 1016.6 hPa 16.1 km South 5.6 km/h / 1.5 m/s - N/A   Mostly Cloudy
9:56 PM 15.0 °C 10.6 °C 75% 1016.7 hPa 16.1 km Calm Calm - N/A   Mostly Cloudy
10:56 PM 13.3 °C 9.4 °C 77% 1016.5 hPa 16.1 km Calm Calm - N/A   Mostly Cloudy
11:56 PM 12.8 °C 8.9 °C 77% 1016.0 hPa 16.1 km Calm Calm - N/A   Mostly Cloudy